User: anonymous   Login
Location: Newark
(54.4333°N, 18.5500°E)
Time: 09:27:50
(UTC+00:00)
Language:

Envisat - Orbit

View from above orbital plane
View from above orbital plane
View from above satellite
View from above satellite

Ground track
Ground track

The orbit data is extracted from the following two-line orbital elements,

1 27386U 02009A   20017.61072860 -.00000003  00000-0  12312-4 0  9994
2 27386  98.1400  32.6206 0001197  87.5404  58.6161 14.37968747936792
Epoch (UTC): 17 January 2020 14:39:26
Eccentricity: 0.0001197
inclination: 98.1400°
perigee height: 764 km
apogee height: 766 km
right ascension of ascending node: 32.6206°
argument of perigee: 87.5404°
revolutions per day: 14.37968747
mean anomaly at epoch: 58.6161°
orbit number at epoch: 93679

The dashed part of the orbit path shows where the satellite is in the earth's shadow,  

DLR